Погода в Утене

Погода в Утене : погода сейчас, прогноз погоды и архив. Всё, что Вы хотите узнать о погоде в Утене!

Поиск расширенной информации на нашем сайте:

Другие новости

Новости СМИ2

Главная страница сайта

Новости сайта

03.07.2017

Напоминаем, что на нашем специализированном сайте Метеоцентр.Азия вы можете получить высокодетализированные автоматические прогнозы погоды по пунктам России, СНГ и мира в авиационном формате (включающие направление и скорость ветра, видимость, явления погоды, количество и форму облачности, нижнюю и верхнюю границу облачности).


Погода в Утене - сегодня

Время (UTC), дата Ветер
(°,м/с) 
Видим.   Явления Облачность Т
(°С)
Тd
(°С)
f(%) Тe
(°С)
Pmin
(гПа)
dP
(гПа)
Po
(мм)
O2
(г/м3)
Тmin Tmax R s Состояние
почвы
15 12.10.18 160 (Ю) 2-4{06}  18000 м    ясно 
+15.8 +10.2 69 +18  1031.6  -1  764  289           
18 12.10.18 160 (Ю) 1-3{04}  20000 м    ясно 
+10.9 +9 88 +12  1031.7  -0.1  764  294    +17.3       
21 12.10.18 тихо () -2{04}  13000 м    ясно 
+8.4 +7.1 92 +8  1032.1  0.2  764  298           
00 13.10.18 130 (ЮВ) 1-2{03}  8000 м  дымка  ясно 
+5.9 +5.4 97 +7  1032.1  764  301           
03 13.10.18 130 (ЮВ) 1-3{04}  9000 м  дымка  ясно 
+6.2 +5.8 97 +7  1031  -1.1  763  300           
06 13.10.18 тихо () -1{03}  5000 м  дымка  ясно 
+6.6 +6.4 99 +7  1031.6  0.5  764  299  +5.3        влажная 
09 13.10.18 170 (Ю) 2-3{04}  18000 м    ясно 
+14.5 +9.9 74 +16  1031.2  0.1  764  290           
12 13.10.18 170 (Ю) 3-5{08}  18000 м    4/3 1000 м верхняя 
[Cu med, cong|Ci fib]
+19 +10.7 59 +22  1030.6  -0.5  763  286           
15 13.10.18 180 (Ю) 1-2{05}  19000 м    4/3 600 м верхняя 
[Cu med, cong|Ci fib]
+17.5 +9.8 61 +20  1029.6  -1  763  287           
18 13.10.18 тихо () -1{02}  4200 м  дымка  ясно 
+8.5 +7.3 92 +9  1030.5  0.5  763  297    +19.4       
21 13.10.18 тихо () -1{02}  1600 м  дымка  ясно 
+6.1 +5.4 95 +6  1030.7  0.1  763  300           
00 14.10.18 тихо () -0{02}  1100 м  туман поземный  ясно 
+4.8 +4.3 97 +5  1030.7  -0.1  763  301           
03 14.10.18 120 (ЮВ) 1-2{02}  1300 м  дымка{туман}  ясно 
+4.8 +4.6 99 +6  1030.8  0.1  763  301           
06 14.10.18 110 (В) 1-2{02}  1500 м  в посл. час туман  ясно 
+5.2 +5 99 +6  1030.6  -0.1  763  301  +3        влажная 
09 14.10.18 150 (ЮВ) 2-3{04}  16000 м    ясно 
+15 +10.9 76 +18  1029.9  -0.3  763  289           
12 14.10.18 180 (Ю) 3-6{06}  20000 м    ясно 
+19.6 +9.9 53 +21  1028.3  -1.4  762  285           
15 14.10.18 140 (ЮВ) 1-3{06}  20000 м    ясно 
+17.4 +9.8 61 +20  1027.1  -1.3  761  286           
18 14.10.18 тихо () -2{03}  18000 м    ясно 
+11.2 +9.4 89 +11  1027.5  0.1  761  293    +20       
21 14.10.18 120 (ЮВ) 1-2{03}  2000 м  туман поземный  ясно 
+6.9 +6 94 +8  1027.7  761  298           
00 15.10.18 130 (ЮВ) 1-2{03}  14000 м    ясно 
+5.9 +4.7 92 +7  1027.4  -0.3  761  299           
03 15.10.18 150 (ЮВ) 3-4{04}  20000 м    ясно 
+5.2 +3.8 91 +4  1026.8  -0.6  760  300           
06 15.10.18 150 (ЮВ) 2-3{04}  16000 м    3/0 верхняя 
[Ci fib]
+5.9 +3.5 85 +6  1027  0.2  760  299  +4.2        влажная 
09 15.10.18 160 (Ю) 3-5{06}  20000 м    3/1 600 м верхняя 
[Cu med, cong|Ci fib]
+14.3 +5.1 54 +14  1026.6  760  290           
12 15.10.18 180 (Ю) 4-6{07}  20000 м    4/3 1000 м верхняя 
[Cu med, cong|Ci fib]
+18.5 +3.4 37 +19  1025.5  -0.9  760  286           
15 15.10.18 140 (ЮВ) 3-4{07}  20000 м    4/3 600 м верхняя 
[Cu med, cong|Ci fib]
+16.8 +4.6 44 +17  1024.6  -1  759  287           
Время (UTC), дата Ветер
(°,м/с) 
Видим.   Явления Облачность Т
(°С)
Тd
(°С)
f(%) Тe
(°С)
Pmin
(гПа)
dP
(гПа)
Po
(мм)
O2
(г/м3)
Тmin Tmax R s Состояние
почвы

Для получения пояснительной информации подведите курсор к названию столбца.

ПОГОДА в Утене - архив

Всё, что Вы хотите узнать о погоде в Утене - удобно и подробно!

Выберите нужную дату (начиная с 1 января 2015* года) и нажмите кнопку "Найти".
Будут отображены архивные сводки погоды по пункту Утена, начиная с указанной даты.


Отображать данные в формате CSV (для использования в таблицах Excel)


Внимание! Наш архив погоды предназначен исключительно для личного некоммерческого использования в познавательных целях. Если Вам необходимы официальные справки о состоянии погоды (для производственных, юридических, коммерческих и т.п. целей), обращайтесь в органы Росгидромета.

*Примечание: данная дата относится к архиву по метеостанциям СССР (Россия, СНГ, Балтия).
Архив по метеостанциям Зарубежной Европы и Азии (кроме Китая) хранится 10 дней, по другим регионам земного шара (Китай, Африка, Америка, Австралия, Океания) - 1 день.

Утена - район местоположения метеостанции


Название, широта, долгота, высота метеостанции:
Утена 55.5°ш. 25.6°д. 106 м над ур. моря [Литва]

Дополнительная информация

В oтличие oт бoльшинства пoгoдных сайтoв мы публикуем пoдрoбную метеoинфoрмацию в детальнoм прoфессиoнальнoм фoрмате.

Характеристики температуры и влажнoсти вoздуха измеряются на высoте 2 м в тени вдали oт зданий и деревьев.
Скoрoсть ветра измеряется на высoте 10 м (на урoвне рoста челoвека скoрoсть ветра ниже в 1.5-2 раза). Если метеoстанция нахoдится в гoрoде или в лесу, тo скoрoсть ветра занижена на 2-4 м/с пo сравнению с oткрытым местoм. Скoрoсть ветра над акватoриями крупных рек и oзёр, а также на вершинах хoлмoв на 2-5 м/с выше, чем в oбычных услoвиях.
Атмoсфернoе давление в разных тoчках местнoсти мoжет значительнo oтличаться oт давления на метеoстанции, в зависимoсти oт услoвий рельефа (при пoдъёме на 10 м давление пoнижается примернo на 1 мм рт.ст.).